Regional Weather Roundup
Issued by NWS

Home | Current Version | Previous Version | Graphics & Text | Print | Product List | Glossary Off
Versions: 1 2 3 4 5 6 7 8 9 10 11 12 13 14 15 16 17 18 19 20 21 22 23 24 25 26 27 28 29 30 31 32 33 34 35 36 37 38 39 40 41 42 43 44 45 46 47 48 49 50

000
ASUS43 KTOP 221408
RWRKS

WEATHER ROUNDUP FOR KANSAS
NATIONAL WEATHER SERVICE GOODLAND KS
900 AM CDT TUE APR 22 2014

NOTE:  "FAIR" INDICATES FEW OR NO CLOUDS BELOW 12,000 FEET WITH NO
SIGNIFICANT WEATHER AND/OR OBSTRUCTIONS TO VISIBILITY.

KSZ001>006-013>018-027>032-041>047-221500-
NORTHWEST KANSAS

CITY           SKY/WX    TMP DP  RH WIND       PRES   REMARKS
GOODLAND       SUNNY     52  30  43 S23       30.11F
HAYS           SUNNY     50  34  53 SE7       30.16R
HILL CITY      SUNNY     51  38  60 S5        30.15S
RUSSELL        PTSUNNY   56  34  43 SE14      30.14S
$$

KSZ061>065-074>080-084>089-221500-
SOUTHWEST KANSAS

CITY           SKY/WX    TMP DP  RH WIND       PRES   REMARKS
DODGE CITY     SUNNY     55  30  38 SE14      30.17R
ELKHART          N/A     56  36  47 S15         N/A
GARDEN CITY    SUNNY     53  30  41 SE12      30.15F
GREAT BEND     MOSUNNY   55  32  41 SE10      30.15S
LIBERAL        SUNNY     55  36  47 S8        30.18S
PRATT          SUNNY     55  30  38 SE8       30.16S
$$

KSZ066>073-081>083-090>101-221500-
SOUTHEAST KANSAS

CITY           SKY/WX    TMP DP  RH WIND       PRES   REMARKS
CHANUTE        SUNNY     55  40  56 N10       30.14R
COFFEYVILLE    SUNNY     57  43  59 NE9       30.13R
HUTCHINSON     SUNNY     58  32  37 E8        30.16R
MEDICINE LODGE   N/A     62  33  33 E9        30.15S
NEWTON         SUNNY     55  30  38 E8G16     30.18R
PARSONS        SUNNY     56  39  53 NE8       30.14R
WICHITA INTL   MOSUNNY   59  34  39 E9        30.15R
WICHITA JABRA  SUNNY     55  35  47 E9        30.15R
WICHITA MCCONL SUNNY     56  32  39 E9        30.15S
WINFIELD       SUNNY     57  39  51 E9        30.15S
$$

KSZ007>012-019>026-033>040-048>060-102>105-221500-
NORTHEAST KANSAS

CITY           SKY/WX    TMP DP  RH WIND       PRES   REMARKS
CONCORDIA      SUNNY     53  33  46 E9        30.16R
EMPORIA        SUNNY     54  37  52 E8        30.14S
LAWRENCE       SUNNY     53  33  46 NE13      30.16S
MANHATTAN      SUNNY     53  34  48 E7        30.16S
OLATHE IND     SUNNY     52  34  50 N13       30.15S
OLATHE EXE     SUNNY     52  30  43 N13       30.14R
SALINA         SUNNY     54  33  45 E7        30.16S
TOPEKA BILLARD SUNNY     53  35  50 NE12      30.16S
TOPEKA FORBES  SUNNY     52  34  50 NE9       30.15S
$$



USA.gov is the U.S. government's official web portal to all federal, state and local government web resources and services.